Printer-friendly version

IAU Minor Planet Center

Minor Planet Center

MPEC 1994-X07: 1994 XD

The following Minor Planet Electronic Circular may be linked-to from your own Web pages, but must not otherwise be redistributed electronically.


Read MPEC 1994-X06 Read MPEC 1994-X08


M.P.E.C. 1994-X07                                Issued 1994 Dec. 12, 16:42 UT

     The Minor Planet Electronic Circulars contain information on unusual
         minor planets and routine data on comets.  They are published
   on behalf of Commission 20 of the International Astronomical Union by the
          Minor Planet Center, Smithsonian Astrophysical Observatory,
                          Cambridge, MA 02138, U.S.A.

          MARSDEN@CFA or WILLIAMS@CFA (.HARVARD.EDU, .SPAN or .BITNET)

                                    1994 XD

Additional observations:
     J94X00D  C1994 12 03.48670 08 23 42.36 +16 37 51.8          19.2 V      691
     J94X00D  C1994 12 03.49481 08 23 40.55 +16 38 01.8          19.5 V      691
     J94X00D  C1994 12 03.50778 08 23 37.63 +16 38 18.4          19.6 V      691
     J94X00D  C1994 12 05.77431 08 15 23.06 +17 26 06.7          19.1 V      360
     J94X00D  C1994 12 05.77882 08 15 22.02 +17 26 12.5                      360
     J94X00D  C1994 12 08.34655 08 05 58.48 +18 17 48.4          18.9 V      691
     J94X00D  C1994 12 08.37117 08 05 52.88 +18 18 17.5          19.0 V      691

Observer details:
360 Kuma Kogen.  Observer A. Nakamura.  0.60-m reflector.
691 Steward Observatory, Kitt Peak.  Observers T. Gehrels, J. V. Scotti.
    0.9-m Spacewatch Telescope.

Orbital elements:
1994 XD
Epoch 1994 Nov. 24.0 TT = JDT 2449680.5                 Marsden
M  16.10380              (2000.0)            P               Q
n   0.27356391     Peri.  247.94911     +0.96562889     +0.24900195
a   2.3501569      Node    97.57006     -0.20200963     +0.89943854
e   0.7273531      Incl.    4.31348     -0.16356332     +0.35917731
P   3.60           H    19.0          G   0.15
From 16 observations 1994 Dec. 1-8.

Ephemeris:
1994 XD                  a,e,i = 2.35, 0.73, 4                   q = 0.6408
Date    TT    R. A. (2000) Decl.     Delta      r     Elong.  Phase     V
1994 12 04    08 21.85   +16 48.9    0.416    1.284   127.9    37.3    19.1
1994 12 09    08 03.57   +18 30.6    0.439    1.342   137.6    29.7    19.1
1994 12 14    07 45.38   +20 00.5    0.467    1.399   147.2    22.4    19.1
1994 12 19    07 27.85   +21 17.0    0.500    1.456   156.5    15.6    19.2
1994 12 24    07 11.49   +22 19.6    0.539    1.512   165.5     9.4    19.2
1994 12 29    06 56.73   +23 09.1    0.585    1.567   174.1     3.7    19.2
1995 01 03    06 43.87   +23 46.9    0.638    1.621   177.7     1.4    19.3
1995 01 08    06 33.05   +24 15.1    0.696    1.674   170.2     5.8    19.8
1995 01 13    06 24.29   +24 35.8    0.761    1.726   163.1     9.5    20.2
1995 01 18    06 17.46   +24 50.9    0.831    1.777   156.4    12.8    20.6
1995 01 23    06 12.41   +25 02.0    0.907    1.827   150.2    15.5    20.9
1995 01 28    06 08.96   +25 10.1    0.987    1.877   144.3    17.8    21.3
1995 02 02    06 06.93   +25 16.0    1.071    1.926   138.8    19.7    21.6

Brian G. Marsden                                              M.P.E.C. 1994-X07

Read MPEC 1994-X06 Read MPEC 1994-X08


Our Web policy. Index to the CBAT/MPC/ICQ pages.


Valid HTML 4.01!